Regional Weather Roundup
Issued by NWS

Home | Current Version | Previous Version | Graphics & Text | Print | Product List | Glossary Off
Versions: 1 2 3 4 5 6 7 8 9 10 11 12 13 14 15 16 17 18 19 20 21 22 23 24 25 26 27 28 29 30 31 32 33 34 35 36 37 38 39 40 41 42 43 44 45 46 47 48 49 50

000
ASUS43 KMPX 212101
RWRMN
WEATHER ROUNDUP FOR MINNESOTA
NATIONAL WEATHER SERVICE TWIN CITIES/CHANHASSEN MN
300 PM CST TUE FEB 21 2017


NOTE: "FAIR" INDICATES FEW OR NO CLOUDS BELOW 12,000 FEET WITH NO
SIGNIFICANT WEATHER AND/OR OBSTRUCTIONS TO VISIBILITY. N/A MEANS
CURRENT SKY AND/OR WEATHER CONDITIONS ARE NOT AVAILABLE.

MNZ060>063-068>070-212200-
   Twin Cities Metro

CITY           SKY/WX    TMP DP  RH WIND       PRES   REMARKS
TWIN CITIES    PTSUNNY   61  39  44 SW17G31   29.73F
ST PAUL        PTSUNNY   60  41  49 S8        29.73F
CRYSTAL        PTSUNNY   60  39  45 S14G23    29.71F
BLAINE         PTSUNNY   63  39  42 S17G24    29.72F
LAKEVILLE      PTSUNNY   61  43  51 SW9       29.74F
EDEN PRAIRIE   PTSUNNY   61  44  53 S20G30    29.71F
SOUTH ST PAUL  PTSUNNY   60  40  47 S15G21    29.73F
LAKE ELMO      FAIR      59  43  55 S12G20    29.74F
$$
MNZ001>005-007-008-013>017-022>024-027-028-212200-
   Northwest Minnesota

CITY           SKY/WX    TMP DP  RH WIND       PRES   REMARKS
BEMIDJI        CLOUDY    47  34  60 S5        29.64S
HALLOCK        FOG       36  34  93 CALM      29.67S VSB<1/4
ROSEAU         SUNNY     36  32  87 E3        29.67R
WARROAD        FOG       34  28  80 CALM      29.67R VSB 1/2
THIEF RVR FALL SUNNY     45  37  73 CALM      29.66R
CROOKSTON      SUNNY     43  37  81 W7        29.66S
FOSSTON        SUNNY     46  43  87 SW8       29.65S
DETROIT LAKES  MOSUNNY   45  37  76 W3        29.66S
MOORHEAD       CLOUDY    45  37  76 W9        29.67R
PARK RAPIDS    CLOUDY    44  34  67 SW8       29.64S
MAHNOMEN       FAIR      45  39  79 SW9       29.65S
$$
MNZ006-009>011-018-025>026-212200-
   North Central Minnesota

CITY           SKY/WX    TMP DP  RH WIND       PRES   REMARKS
BAUDETTE       SUNNY     39  33  79 E5        29.65F
FLAG ISLAND    CLOUDY    34  30  86 CALM      29.66F
INTL FALLS     SUNNY     45  34  65 NE6       29.66F
WASKISH        SUNNY     52  37  58 SE8       29.63F
BIG FORK       SUNNY     52  36  54 S3        29.66R
LONGVILLE      MOSUNNY   48  36  61 S5        29.65F
GRAND RAPIDS   MOSUNNY   47  35  63 S8        29.68S
CRANE LAKE     SUNNY     45  34  65 CALM      29.70F
ORR            SUNNY     48  30  49 CALM      29.64F
COOK           SUNNY     50  34  53 E5        29.66F
WALKER         FAIR      47  36  64 SW7       29.64S
$$
MNZ012-019>021-037-212200-
   Northeast Minnesota

CITY           SKY/WX    TMP DP  RH WIND       PRES   REMARKS
DULUTH         MOSUNNY   48  35  60 S14       29.68F
ELY            SUNNY     48  32  53 CALM      29.68F
HIBBING        SUNNY     46  33  60 E3        29.66F
EVELETH        SUNNY     50  33  51 CALM      29.67F
DULUTH HARBOR  MOSUNNY   39  36  87 CALM      29.71F
TWO HARBORS    SUNNY     52  39  62 CALM      29.69F
SILVER BAY     MOSUNNY   48  36  61 SE3       29.69F
GRAND MARAIS     N/A     38  36  92 W8        29.74F
G MARAIS ARPRT MOSUNNY   48  27  43 S3        29.71S
$$
MNZ029>031-032-039>041-046>048-054>057-064-212200-
   West Central Minnesota

CITY           SKY/WX    TMP DP  RH WIND       PRES   REMARKS
FERGUS FALLS   MOSUNNY   48  43  81 SW7       29.71R
WHEATON        PTSUNNY   55  39  54 W5        29.69S
MORRIS         MOSUNNY   54  43  66 W6        29.67S
ALEXANDRIA     PTSUNNY   50  41  71 SW8       29.68F
ELBOW LAKE     FAIR      49  44  80 SW3       29.68F
WADENA         CLOUDY    48  37  66 SW8       29.66S
GLENWOOD       MOSUNNY   54  45  71 SW8       29.69S
APPLETON       MOSUNNY   59  43  55 SW7       29.68S
BENSON         MOSUNNY   61  37  41 SW7       29.70S
ORTONVILLE     PTSUNNY   59  43  55 CALM      29.68S
MADISON        MOSUNNY   63  43  48 W9        29.69
WILLMAR        FAIR      55  46  71 SW8       29.71S
$$
MNZ033>034-036-042>043-049>051-058-059-212200-
   Central Minnesota

CITY           SKY/WX    TMP DP  RH WIND       PRES   REMARKS
ST CLOUD       MOSUNNY   55  44  66 S15       29.68F
SAUK CENTRE    FAIR      52  43  72 SW6       29.68F
PAYNESVILLE    CLOUDY    53  41  64 SW10      29.70S
AITKIN         CLOUDY    48  36  61 S12       29.66S
PINE RIVER     CLOUDY    48  39  71 S6        29.70S
BRAINERD       CLOUDY    51  39  63 S16       29.67S
STAPLES        CLOUDY    48  37  66 SW6       29.67R
LONG PRAIRIE   FAIR      50  41  71 S8        29.68F
LITTLE FALLS   CLOUDY    54  41  62 SW9       29.69S
LITCHFIELD     MOSUNNY   57  46  67 SW6       29.70F
BUFFALO        CLOUDY    58  43  56 S9        29.71F
MAPLE LAKE     MOSUNNY   58  46  63 SW7       29.71F
HUTCHINSON     SUNNY     60  48  63 S12G17    29.72S
$$
MNZ037-044-045-052-053-212200-
   East Central Minnesota

CITY           SKY/WX    TMP DP  RH WIND       PRES   REMARKS
PRINCETON      MOSUNNY   59  45  58 S10G18    29.70F
MORA           MOSUNNY   48  41  76 S5        29.71F
CAMBRIDGE      CLOUDY    59  43  55 S8G21     29.69F
RUSH CITY      CLOUDY    52  41  66 S7        29.71F
MOOSE LAKE     CLOUDY    48  36  61 SW7       29.68S
HINCKLEY       FAIR      50  41  71 S14       29.71F
CLOQUET        MOSUNNY   50  32  50 S10G18    29.68F
MCGREGOR       PTSUNNY   46  36  66 S8        29.68S
$$
MNZ071>073-080-081-089-090-097-098-212200-
   Southwest Minnesota

CITY           SKY/WX    TMP DP  RH WIND       PRES   REMARKS
MONTEVIDEO     MOSUNNY   57  45  62 W6        29.71S
GRANITE FALLS  SUNNY     60  46  61 SW14      29.71S
CANBY          MOSUNNY   63  42  46 SW9       29.71R
MARSHALL       MOSUNNY   59  44  57 W15       29.71R
REDWOOD FALLS  SUNNY     63  43  48 SW18G26   29.70S
OLIVIA         SUNNY     59  46  63 SW12      29.69F
PIPESTONE      SUNNY     61  37  41 SW13      29.73S
WINDOM         SUNNY     63  45  51 S18       29.72F
WORTHINGTON    SUNNY     63  46  54 SW18      29.74F
JACKSON        SUNNY     61  41  48 SW21G29   29.75F
TRACY          CLOUDY    63  46  53 SW20G32   29.70F
SLAYTON        SUNNY     61  43  50 SW20      29.73F
$$
MNZ065>067-074>077-082>085-091>093-212200-
   South Central Minnesota

CITY           SKY/WX    TMP DP  RH WIND       PRES   REMARKS
MANKATO          N/A     62  45  53 S17G28    29.74F
NEW ULM        SUNNY     63  45  51 SW21G26   29.71F
ST JAMES       SUNNY     63  45  51 S14G24    29.74S
FAIRMONT       CLOUDY    63  46  54 SW20G25   29.75F
GLENCOE        MOSUNNY   62  50  64 SW14G22   29.70F
FARIBAULT      MOSUNNY   61  43  51 S14G21    29.76S
OWATONNA       SUNNY     61  43  51 S22G29    29.76F
WASECA         SUNNY     59  46  63 S18       29.77F
ALBERT LEA     SUNNY     59  45  58 S10G23    29.79F
$$
MNZ078>079-086>088-094>096-212200-
   Southeast Minnesota

CITY           SKY/WX    TMP DP  RH WIND       PRES   REMARKS
ROCHESTER      MOSUNNY   56  47  71 S17       29.81F
RED WING       MOSUNNY   61  36  39 S7G17     29.76F
STANTON        PTSUNNY   62  43  49 S13G20    29.74F
WINONA         MOSUNNY   59  37  44 S8        29.83F
AUSTIN         SUNNY     57  45  62 S14       29.81F
PRESTON        SUNNY     56  42  59 S15       29.84F
$$
ABBREVIATIONS USED IN REMARKS
   TC - TEMPERATURES IN CELSIUS
  WCI - WIND CHILL INDEX
   HX - HEAT INDEX
  VSB - VISIBILITY
$$




USA.gov is the U.S. government's official web portal to all federal, state and local government web resources and services.